Regional Weather Roundup
Issued by NWS

Home | Current Version | Previous Version | Graphics & Text | Print | Product List | Glossary On
Versions: 1 2 3 4 5 6 7 8 9 10 11 12 13 14 15 16 17 18 19 20 21 22 23 24 25 26 27 28 29 30 31 32 33 34 35 36 37 38 39 40 41 42 43 44 45 46 47 48 49 50
961
ASUS44 KMEG 132210
RWRTN
TENNESSEE HOURLY STATE WEATHER ROUNDUP
NATIONAL WEATHER SERVICE MEMPHIS TN
400 PM CST SAT FEB 13 2016

TNZ002-004-019-021-049-052-054-088>092-132300-
WEST TENNESSEE

CITY           SKY/WX    TMP DP  RH WIND       PRES   REMARKS
MEMPHIS INTL   MOSUNNY   38   5  25 NE10      30.46F WCI  31
NWS MEMPHIS      N/A     35 N/A N/A MISG        N/A
JACKSON        CLOUDY    33   6  32 N7        30.49F WCI  27
DYERSBURG      CLOUDY    28   5  37 NE7       30.54S WCI  21
UNION CITY     PTSUNNY   28   3  34 NE9       30.51S WCI  20
PARIS          MOSUNNY   27   3  36 NE8       30.50F WCI  18
LEXINGTON      SUNNY     30   0  27 NE7       30.47F WCI  23
$$

TNZ008-025-027-028-033-062-065-066-132300-
NORTH MIDDLE TENNESSEE

CITY           SKY/WX    TMP DP  RH WIND       PRES   REMARKS
NASHVILLE      PTSUNNY   32   1  26 N8        30.49F WCI  25
CLARKSVILLE    CLOUDY    27   1  32 VRB5      30.52S WCI  22
SMYRNA         SUNNY     31   3  30 N9        30.51R WCI  23
COOKEVILLE     SUNNY     28   5  37 N6        30.44R WCI  22
CROSSVILLE     SUNNY     28   4  35 N12       30.38R WCI  18
$$

TNZ061-075-076-078-094-096-097-132300-
SOUTH MIDDLE TENNESSEE

CITY           SKY/WX    TMP DP  RH WIND       PRES   REMARKS
FAYETTEVILLE   SUNNY     34   5  29 N9        30.44R WCI  26
TULLAHOMA      SUNNY     30   1  29 VRB7      30.43R WCI  23
WINCHESTER     SUNNY     30   5  34 N9        30.43R WCI  22
MCMINNVILLE    SUNNY     30   3  31 N12       30.43S WCI  21
COLUMBIA       SUNNY     34   3  27 NW6       30.45S WCI  29
SHELBYVILLE    SUNNY     32   7  34 N10       30.47R WCI  24
$$

TNZ017-018-042-046-047-132300-
NORTHEAST TENNESSEE

CITY           SKY/WX    TMP DP  RH WIND       PRES   REMARKS
TRI CITIES     SUNNY     26   3  37 NW10      30.36R WCI  16
$$

TNZ012-013-036-069-073-074-132300-
CENTRAL EAST TENNESSEE

CITY           SKY/WX    TMP DP  RH WIND       PRES   REMARKS
KNOXVILLE      NOT AVBL
OAK RIDGE      SUNNY     33  -1  23 N7        30.43R WCI  27
GATLINBURG     CLEAR     28   3  34 W6        30.40S WCI  22
MORRISTOWN     CLEAR     27   3  36 N7        30.38R WCI  19
$$

TNZ083-085-099-132300-
SOUTHEAST TENNESSEE

CITY           SKY/WX    TMP DP  RH WIND       PRES   REMARKS
CHATTANOOGA    SUNNY     37   0  21 N12       30.41S WCI  29
$$

SKY/WX REPORTED AS FAIR MEANS FEW OR NO CLOUDS BELOW
12 THOUSAND FEET.





USA.gov is the U.S. government's official web portal to all federal, state and local government web resources and services.